Location: Chimay
(50.0486°N, 4.3171°E)
Time: 14:48:39
(UTC+00:00)

Cosmos 1515 - Pass Details

Date: 08 August 2020
Orbit: 505 x 517 km, 82.5° (Epoch: 18 September)

Event Time Altitude Azimuth Distance (km) Brightness Sun altitude
Rises 21:11:28 0° 354° (N) 2,651 8.3 -15.7°
Reaches altitude 10° 21:13:41 10° 1° (N) 1,757 7.1 -15.9°
Maximum altitude 21:17:24 46° 75° (ENE) 704 4.1 -16.3°
Enters shadow 21:18:36 34° 123° (ESE) 870 4.3 -16.4°
